Location: Ariel
(45.9570°N, 122.5700°W)
Time: 16:30:52
(UTC-07:00)

Transit 4A - Pass Details

Date: 21 July 2019
Orbit: 863 x 981 km, 66.8° (Epoch: 21 August)

Event Time Altitude Azimuth Distance (km) Brightness Sun altitude
Rises 06:22:02 0° 297° (WNW) 3,688 10.6 5.6°
Reaches altitude 10° 06:26:46 10° 328° (NNW) 2,741 10.3 6.3°
Maximum altitude 06:29:00 12° 349° (NNW) 2,608 10.4 6.7°
Drops below altitude 10° 06:31:14 10° 9° (N) 2,734 10.9 7.0°
Sets 06:35:57 0° 41° (NE) 3,665 12.3 7.8°
